Miscellaneous Local Product
Issued by NWS Hastings, NE

Home | Current Version | Previous Version | Graphics & Text | Print | Product List | Glossary On
Versions: 1 2 3 4 5 6 7 8 9 10 11 12 13 14 15 16 17 18 19 20 21 22 23 24 25 26 27 28 29 30 31 32 33 34 35 36 37 38 39 40 41 42 43 44 45 46 47 48 49 50
000
AXUS43 KGID 020302
MISGRI

GID CWA HOURLY WEATHER ROUNDUP
NATIONAL WEATHER SERVICE HASTINGS NE
1000 PM CDT MON JUN 01 2015

NOTE: "FAIR" INDICATES FEW OR NO CLOUDS BELOW 12,000 FEET WITH NO
SIGNIFICANT WEATHER AND/OR OBSTRUCTIONS TO VISIBILITY.

...SOUTH CENTRAL NEBRASKA...

CITY           SKY/WX    TMP DP  RH WIND       PRES   REMARKS
GRAND ISLAND   CLEAR     68  57  68 S14       30.03R
HASTINGS       MOCLDY    67  58  72 S9        30.03R
KEARNEY        CLEAR     64  57  77 SE13      30.03R
ORD            MOCLDY    68  57  68 S12       30.00R
YORK           CLEAR     68  54  60 S10       30.04R
AURORA         CLEAR     69  56  63 S9        30.03R
LEXINGTON      MOCLDY    67  61  80 SE12G17   30.00S
HOLDREGE       CLEAR     65  58  77 SE16      30.01S
HEBRON         MOCLDY    67  55  66 SE8       30.05S

...NEBRASKA PANHANDLE...

CITY           SKY/WX    TMP DP  RH WIND       PRES   REMARKS
CHADRON        CLOUDY    69  50  50 SW6       29.87S
ALLIANCE       LGT RAIN  64  56  75 S16G22    29.96R
SCOTTSBLUFF    CLOUDY    64  56  75 E9        29.96S
SIDNEY         LGT RAIN  64  53  67 N8        30.00F

...WESTERN AND NORTH CENTRAL NEBRASKA...

CITY           SKY/WX    TMP DP  RH WIND       PRES   REMARKS
VALENTINE      CLOUDY    71  60  68 S13       29.93R
AINSWORTH      MOCLDY    68  59  74 S15       29.96S
ONEILL         CLEAR     69  58  67 S12       29.98R
BROKEN BOW     CLOUDY    67  59  75 S14       30.01R
IMPERIAL       CLOUDY    72  62  71 SE14      29.97R
NORTH PLATTE   CLOUDY    67  61  81 SE13      29.98R
MCCOOK         MOCLDY    70  62  76 E8        29.97S

...EASTERN NEBRASKA...

CITY           SKY/WX    TMP DP  RH WIND       PRES   REMARKS
NORFOLK        CLEAR     68  53  58 SE13      30.02R
SO SIOUX CITY  CLEAR     68  50  52 S10       30.04S
TEKAMAH        CLEAR     67  51  56 SE10      30.06R
COLUMBUS       CLEAR     66  52  59 SE9       30.05R
ALBION         CLEAR     67  54  61 S8        30.01R
OMAHA EPPLEY   PTCLDY    65  51  60 SE10      30.06S
OFFUTT AFB     CLEAR     61  52  72 E9        30.07R
LINCOLN        CLEAR     67  54  63 SE9       30.06R
NEBRASKA CITY  CLEAR     64  49  59 S9        30.08S
BEATRICE       CLEAR     65  55  68 SE5       30.07R
FALLS CITY     CLEAR     61  54  77 S9        30.09R

...NORTHERN KANSAS...

CITY           SKY/WX    TMP DP  RH WIND       PRES   REMARKS
GOODLAND       MOCLDY    70  63  78 S10       29.99R
HILL CITY      CLEAR     69  62  78 SE8       30.00R
NORTON         CLEAR     68  59  73 E10G16    30.00R
PHILLIPSBURG   CLEAR     70  61  73 E10       30.01S
SMITH CENTER   MOCLDY    64  57  77 SE14      30.03R
HAYS           CLEAR     66  57  72 SE10      30.01S
RUSSELL        CLEAR     67  61  81 SE12      30.00F
CONCORDIA      CLOUDY    67  56  67 SE13      30.05S
SALINA         CLOUDY    70  58  65 E12       30.05R
TOPEKA         PTCLDY    60  53  77 E8        30.11R



USA.gov is the U.S. government's official web portal to all federal, state and local government web resources and services.